Simultaneous Nadir Overpasses (SNOs) Predictions

Prediction of SNOs between NOAA-19 and TERRA Satellite Orbit:

Table of predicted SNOs for the next 14.0 days since TLE Epoch: 10/15/2012
Index Date (NOAA-19) Time (NOAA-19) NOAA-19 Lat,Lon Date (TERRA) Time (TERRA) TERRA Lat,Lon Distance(km) Time Diff (sec)
1 10/15/2012 19:36:50 69.10,-114.78 10/15/2012 19:37:16 69.12,-114.81 1.82 26
2 10/15/2012 20:27:51 -68.95, 52.67 10/15/2012 20:26:47 -68.95, 52.62 2.25 64
3 10/18/2012 00:21:24 69.10, 174.08 10/18/2012 00:21:38 69.10, 174.09 0.31 14
4 10/18/2012 01:12:23 -68.82, -18.29 10/18/2012 01:11:10 -68.89, -18.55 13.50 73
5 10/20/2012 04:15:15 -70.01, -65.65 10/20/2012 04:16:23 -69.85, -63.65 78.32 68
6 10/20/2012 05:05:57 69.07, 103.00 10/20/2012 05:06:02 69.08, 102.97 2.07 5
7 10/20/2012 05:56:51 -68.49, -88.98 10/20/2012 05:55:40 -68.54, -90.08 45.37 71
8 10/22/2012 08:59:43 -69.71,-136.32 10/22/2012 09:00:53 -69.60,-135.10 48.67 70
9 10/22/2012 09:50:30 69.05, 31.89 10/22/2012 09:50:28 69.06, 31.83 2.87 2
10 10/22/2012 10:41:19 -68.18,-159.71 10/22/2012 10:40:11 -68.24,-161.55 76.61 68
11 10/24/2012 13:44:13 -69.52, 152.82 10/24/2012 13:45:24 -69.40, 153.52 30.41 71
12 10/24/2012 14:35:04 69.09, -39.30 10/24/2012 14:34:55 69.08, -39.26 2.68 9
13 10/24/2012 15:25:49 -67.99, 129.40 10/24/2012 15:24:42 -68.04, 127.10 96.09 67
14 10/26/2012 18:28:43 -69.36, 81.94 10/26/2012 18:29:55 -69.30, 82.27 14.37 72
15 10/26/2012 19:19:36 69.05,-110.37 10/26/2012 19:19:25 69.03,-110.44 3.27
